Location: Lake Almanor
(40.2485°N, 121.1442°W)
Time: 16:54:27
(UTC-08:00)

N. Korean satellite - Pass Details

Date: 31 January 2020
Orbit: 456 x 505 km, 97.2° (Epoch: 25 February)

Event Time Altitude Azimuth Distance (km) Brightness Sun altitude
Rises 06:09:14 0° 6° (N) 2,564 10.2 -12.8°
Reaches altitude 10° 06:11:20 10° 2° (N) 1,686 9.2 -12.4°
Maximum altitude 06:14:52 52° 285° (WNW) 619 6.7 -11.7°
Drops below altitude 10° 06:18:26 10° 208° (SSW) 1,696 9.2 -11.1°
Sets 06:20:32 0° 204° (SSW) 2,580 10.1 -10.7°
